sat.trackr.live / text

‹ back to catalog

ONEWEB-0668

NORAD 56711 · 2023-068B

PAYLOAD ACTIVE UNKNOWN

§ Identity

Operator
Country
UK
Launch date
2023-05-20
Launch site
AFWTR
Launch vehicle
Mass (kg)
RCS (m²)

Purposes: comms

External: N2YO · Heavens-Above · Gunter

§ Orbital elements

Epoch: 2026-09-19T14:08:23.495712Z

Period
109.37 min
Inclination
87.9155°
Eccentricity
0.0001724
Mean motion
13.16594730 rev/d
Perigee alt
1,196.4 km
Apogee alt
1,199.1 km
Semi-major
7,575.9 km
B*
-3.6079e-5
RAAN
210.0305°
Arg perigee
91.0603°
Mean anomaly
269.0726°
Rev number
16,420

§ Raw data

ONEWEB-06681 56711U 23068B   26262.58916083 -.00000001  00000+0 -36079-4 0  99982 56711  87.9155 210.0305 0001724  91.0603 269.0726 13.16594730164205

JSON: /api/v1/satellites/56711 · /tle

For live sub-satellite position, see the globe view (requires WebGL).

§ Visibility from observer

Set your observer location to see the next 7 days of passes ≥ 10°. The values pass through the URL so the page stays shareable.

No JS? Fill the form by hand. The geolocation button needs JavaScript.